Weather History for Heraklion, Greece

Change the Weather History Date:

Thursday, December 26, 2013

  Actual Average Record
Temperature  
Mean Temperature 56 °F -  
Max Temperature 65 °F 60 °F 71 °F (2010)
Min Temperature 48 °F 49 °F 42 °F (2005)
Degree Days  
Heating Degree Days 8    
Growing Degree Days 6 (Base 50)    
Moisture  
Dew Point 50 °F    
Average Humidity 76    
Maximum Humidity 88    
Minimum Humidity 55    
Precipitation  
Precipitation 0.00 in 0.12 in - ()
Sea Level Pressure  
Sea Level Pressure 29.99 in    
Wind  
Wind Speed 8 mph ()    
Max Wind Speed 13 mph    
Max Gust Speed -    
Visibility 6.8 miles    
Events      
Averages and records for this station are not official NWS values.
T = Trace of Precipitation, MM = Missing Value Source: Averaged Metar Reports

Daily Weather History Graph

Daily Weather History Graph

Search for Another Location

Airport:

Trip Planner

Search our weather history database for the weather conditions in past years. The results will help you decide how hot, cold, wet, or windy it might be!

Date:

Astronomy

Dec. 26, 2013 Rise Set
Actual Time 7:26 AM EET 5:13 PM EET
Civil Twilight 6:58 AM EET 5:41 PM EET
Nautical Twilight 6:26 AM EET 6:13 PM EET
Astronomical Twilight 5:55 AM EET 6:44 PM EET
Moon 12:45 AM EET (12/26) 12:29 PM EET (12/26)
Length of Visible Light 10h 43m
Length of Day
9h 46m
Last Quarter, 41% of the Moon is Illuminated
Dec 26
Last Quarter
Jan 1
New
Jan 8
First Quarter
Jan 16
Full
Jan 24
Last Quarter

Hourly Weather History & Observations

Time (EET) Temp. Dew Point Humidity Pressure Visibility Wind Dir Wind Speed Gust Speed Precip Events Conditions
12:20 AM 50.0 °F 44.6 °F 82% 30.01 in 6.2 mi South 9.2 mph - N/A   Partly Cloudy
12:50 AM 50.0 °F 46.4 °F 87% 30.01 in 6.2 mi South 8.1 mph - N/A   Partly Cloudy
1:20 AM 50.0 °F 46.4 °F 87% 30.01 in 6.2 mi South 9.2 mph - N/A   Partly Cloudy
1:50 AM 50.0 °F 44.6 °F 82% 30.01 in 6.2 mi South 9.2 mph - N/A   Partly Cloudy
2:00 AM 50 °F 44 °F 74% 30.02 in 9 mi South 9.2 mph - -   Scattered Clouds
2:20 AM 50.0 °F 44.6 °F 82% 30.01 in 6.2 mi South 10.4 mph - N/A   Partly Cloudy
2:50 AM 50.0 °F 44.6 °F 82% 30.01 in 6.2 mi South 11.5 mph - N/A   Partly Cloudy
3:20 AM 50.0 °F 44.6 °F 82% 30.01 in 6.2 mi South 8.1 mph - N/A   Partly Cloudy
3:50 AM 50.0 °F 44.6 °F 82% 30.01 in 6.2 mi South 8.1 mph - N/A   Partly Cloudy
4:50 AM 51.8 °F 44.6 °F 76% 30.01 in 6.2 mi South 8.1 mph - N/A   Partly Cloudy
5:00 AM 51 °F 44 °F 70% 30.02 in 9 mi South 8.1 mph - -   Scattered Clouds
5:20 AM 51.8 °F 44.6 °F 76% 30.01 in 6.2 mi South 8.1 mph - N/A   Partly Cloudy
6:20 AM 50.0 °F 44.6 °F 82% 30.01 in 6.2 mi South 12.7 mph - N/A   Partly Cloudy
6:50 AM 50.0 °F 44.6 °F 82% 30.01 in 6.2 mi South 9.2 mph - N/A   Partly Cloudy
7:20 AM 50.0 °F 44.6 °F 82% 30.04 in 6.2 mi South 12.7 mph - N/A   Partly Cloudy
7:50 AM 50.0 °F 44.6 °F 82% 30.01 in 6.2 mi South 9.2 mph - N/A   Partly Cloudy
8:00 AM 49 °F 44 °F 76% 30.02 in 12 mi South 9.2 mph - -   Scattered Clouds
8:20 AM 51.8 °F 44.6 °F 76% 30.01 in 6.2 mi South 9.2 mph - N/A   Partly Cloudy
8:50 AM 53.6 °F 46.4 °F 77% 30.04 in 6.2 mi South 9.2 mph - N/A   Partly Cloudy
9:20 AM 55.4 °F 48.2 °F 77% 30.04 in 6.2 mi South 9.2 mph - N/A   Partly Cloudy
9:50 AM 59.0 °F 50.0 °F 72% 30.04 in 6.2 mi South 10.4 mph - N/A   Partly Cloudy
10:20 AM 62.6 °F 51.8 °F 68% 30.04 in 6.2 mi South 5.8 mph - N/A   Partly Cloudy
10:50 AM 64.4 °F 51.8 °F 64% 30.04 in 6.2 mi Variable 3.5 mph - N/A   Partly Cloudy
11:00 AM 64 °F 52 °F 55% 30.04 in 12 mi 3.5 mph - -   Scattered Clouds
11:20 AM 64.4 °F 53.6 °F 68% 30.04 in 6.2 mi Variable 3.5 mph - N/A   Partly Cloudy
11:50 AM 64.4 °F 55.4 °F 73% 30.01 in 6.2 mi Variable 3.5 mph - N/A   Partly Cloudy
12:20 PM 64.4 °F 53.6 °F 68% 30.01 in 6.2 mi Variable 2.3 mph - N/A   Partly Cloudy
12:50 PM 64.4 °F 55.4 °F 73% 30.01 in 6.2 mi NNE 4.6 mph - N/A   Partly Cloudy
1:20 PM 64.4 °F 53.6 °F 68% 29.98 in 6.2 mi NE 4.6 mph - N/A   Partly Cloudy
1:50 PM 62.6 °F 53.6 °F 72% 29.98 in 6.2 mi ENE 5.8 mph - N/A   Partly Cloudy
2:00 PM 63 °F 53 °F 61% 29.99 in 12 mi ENE 5.8 mph - -   Scattered Clouds
2:20 PM 62.6 °F 53.6 °F 72% 29.98 in 6.2 mi East 8.1 mph - N/A   Scattered Clouds
2:50 PM 62.6 °F 51.8 °F 68% 29.95 in 6.2 mi East 8.1 mph - N/A   Scattered Clouds
3:20 PM 62.6 °F 51.8 °F 68% 29.95 in 6.2 mi East 10.4 mph - N/A   Scattered Clouds
3:50 PM 62.6 °F 51.8 °F 68% 29.95 in 6.2 mi East 10.4 mph - N/A   Mostly Cloudy
4:20 PM 62.6 °F 51.8 °F 68% 29.95 in 6.2 mi East 9.2 mph - N/A   Mostly Cloudy
4:50 PM 60.8 °F 53.6 °F 77% 29.95 in 6.2 mi East 8.1 mph - N/A   Mostly Cloudy
5:00 PM 61 °F 54 °F 70% 29.96 in 12 mi East 8.1 mph - -   Scattered Clouds
5:20 PM 60.8 °F 53.6 °F 77% 29.95 in 6.2 mi Variable 3.5 mph - N/A   Mostly Cloudy
5:50 PM 59.0 °F 51.8 °F 77% 29.95 in 6.2 mi South 5.8 mph - N/A   Mostly Cloudy
6:20 PM 59.0 °F 55.4 °F 88% 29.95 in 6.2 mi South 9.2 mph - N/A   Mostly Cloudy
6:50 PM 57.2 °F 50.0 °F 77% 29.98 in 6.2 mi South 10.4 mph - N/A   Scattered Clouds
7:20 PM 57.2 °F 50.0 °F 77% 29.98 in 6.2 mi South 8.1 mph - N/A   Scattered Clouds
7:50 PM 57.2 °F 50.0 °F 77% 29.95 in 6.2 mi South 11.5 mph - N/A   Scattered Clouds
8:00 PM 57 °F 50 °F 72% 29.97 in 9 mi South 11.5 mph - -   Scattered Clouds
8:20 PM 57.2 °F 50.0 °F 77% 29.95 in 6.2 mi South 11.5 mph - N/A   Scattered Clouds
8:50 PM 59.0 °F 51.8 °F 77% 29.95 in 6.2 mi South 12.7 mph - N/A   Scattered Clouds
9:20 PM 59.0 °F 51.8 °F 77% 29.95 in 6.2 mi South 11.5 mph - N/A   Scattered Clouds
9:50 PM 59.0 °F 51.8 °F 77% 29.95 in 6.2 mi South 9.2 mph - N/A   Scattered Clouds
10:20 PM 59.0 °F 51.8 °F 77% 29.95 in 6.2 mi SSW 5.8 mph - N/A   Scattered Clouds
10:50 PM 59.0 °F 53.6 °F 82% 29.95 in 6.2 mi SSW 6.9 mph - N/A   Scattered Clouds
11:00 PM 58 °F 53 °F 78% 29.97 in 9 mi SSW 6.9 mph - -   Scattered Clouds
11:20 PM 59.0 °F 53.6 °F 82% 29.95 in 6.2 mi SSE 6.9 mph - N/A   Scattered Clouds
11:50 PM 59.0 °F 51.8 °F 77% 29.95 in 6.2 mi South 8.1 mph - N/A   Scattered Clouds